Regional Weather Roundup
Issued by NWS Goodland, KS

Home | Current Version | Previous Version | Graphics & Text | Print | Product List | Glossary On
Versions: 1 2 3 4 5 6 7 8 9 10 11 12 13 14 15 16 17 18 19 20 21 22 23 24 25 26 27 28 29 30 31 32 33 34 35 36 37 38 39 40 41 42 43 44 45 46 47 48 49 50
000
ASUS43 KGLD 110908
RWRGLD

GOODLAND FORECAST AREA HOURLY WEATHER ROUNDUP
NATIONAL WEATHER SERVICE GOODLAND KS
300 AM MDT FRI JUL 11 2014

...OFFICIAL OBSERVATIONS...

CITY           SKY/WX    TMP DP  RH WIND       PRES   REMARKS
GOODLAND KS    PTCLDY    69  55  60 S13       29.96S
HILL CITY KS   CLEAR     71  68  90 E5        29.94R
IMPERIAL NEB   CLOUDY    72  67  84 E12       29.97S
MCCOOK NEB     MOCLDY    71  69  93 N13       29.96R
AKRON CO       CLOUDY    66  61  84 NE16      30.01S
BURLINGTON CO  CLEAR     72  51  47 S15       29.98S
LIMON CO       MOCLDY    66  57  72 W10       30.07F
$$

...UNOFFICIAL OBSERVATIONS...

CITY           SKY/WX    TMP DP  RH WIND       PRES   REMARKS
COLBY KS       CLEAR     73  63  68 S8        29.95S
GOVE KS          N/A     70  32  24 CALM        N/A
LENORA KS        N/A     69  32  25 MISG        N/A
NORTON KS      CLEAR     70  64  83 SE8       29.93S
OBERLIN KS     FAIR      70  66  88 S12       29.92S
SHARON SPRINGS   N/A     73  54  51 S12G18      N/A
ST FRANCIS KS  PTCLDY    73  50  43 NW9       29.95R
TRIBUNE KS     CLEAR     75  41  29 S17       29.99
WAKEENEY KS      N/A     71  69  92 MISG        N/A
WRAY CO        FAIR      72  63  73 NE8       29.97R
YUMA CO          N/A     69  63  82 NE10        N/A
$$



USA.gov is the U.S. government's official web portal to all federal, state and local government web resources and services.